Time,TemperatureF,DewpointF,PressureIn,WindDirection,WindDirectionDegrees,WindSpeedMPH,WindSpeedGustMPH,Humidity,HourlyPrecipIn,Conditions,Clouds,dailyrainin,SolarRadiationWatts/m^2,SoftwareType,DateUTC
2013-06-18 00:02:00,64.0,57.0,-100.00,NE,49,2.0,4.0,78,0.00,,,0.00,0.000000,,2013-06-18 04:02:00,
2013-06-18 00:12:00,64.0,57.0,-100.00,NE,49,2.0,4.0,78,0.00,,,0.00,0.000000,,2013-06-18 04:12:00,
2013-06-18 00:23:00,64.0,57.0,-100.00,NE,49,2.0,4.0,78,0.00,,,0.00,0.000000,,2013-06-18 04:23:00,
2013-06-18 00:54:00,63.0,57.0,-100.00,NE,44,3.0,5.0,82,0.07,,,0.07,0.000000,,2013-06-18 04:54:00,
2013-06-18 01:03:00,63.0,57.0,-100.00,NE,44,3.0,5.0,82,0.07,,,0.07,0.000000,,2013-06-18 05:03:00,
2013-06-18 01:12:00,63.0,57.0,-100.00,NE,44,3.0,5.0,82,0.07,,,0.07,0.000000,,2013-06-18 05:12:00,
2013-06-18 01:22:00,63.0,57.0,-100.00,NE,44,3.0,5.0,82,0.07,,,0.07,0.000000,,2013-06-18 05:22:00,
2013-06-18 01:53:00,61.0,57.0,-100.00,ESE,108,2.0,7.0,88,0.00,,,0.07,0.000000,,2013-06-18 05:53:00,
2013-06-18 02:02:00,61.0,57.0,-100.00,ESE,108,2.0,7.0,88,0.00,,,0.07,0.000000,,2013-06-18 06:02:00,
2013-06-18 02:12:00,61.0,57.0,-100.00,ESE,108,2.0,7.0,88,0.00,,,0.07,0.000000,,2013-06-18 06:12:00,
2013-06-18 02:24:00,61.0,57.0,-100.00,ESE,108,2.0,7.0,88,0.00,,,0.07,0.000000,,2013-06-18 06:24:00,
2013-06-18 02:53:00,60.0,58.0,-100.00,NE,46,3.0,8.0,92,0.00,,,0.07,0.000000,,2013-06-18 06:53:00,
2013-06-18 03:02:00,60.0,58.0,-100.00,NE,46,3.0,8.0,92,0.00,,,0.07,0.000000,,2013-06-18 07:02:00,
2013-06-18 03:12:00,60.0,58.0,-100.00,NE,46,3.0,8.0,92,0.00,,,0.07,0.000000,,2013-06-18 07:12:00,
2013-06-18 03:22:00,60.0,58.0,-100.00,NE,46,3.0,8.0,92,0.00,,,0.07,0.000000,,2013-06-18 07:22:00,
2013-06-18 03:53:00,59.0,58.0,-100.00,ENE,64,5.0,10.0,97,0.00,,,0.07,0.000000,,2013-06-18 07:53:00,
2013-06-18 04:02:00,59.0,58.0,-100.00,ENE,64,5.0,10.0,97,0.00,,,0.07,0.000000,,2013-06-18 08:02:00,
2013-06-18 04:11:00,59.0,58.0,-100.00,ENE,64,5.0,10.0,97,0.00,,,0.07,0.000000,,2013-06-18 08:11:00,
2013-06-18 04:23:00,59.0,58.0,-100.00,ENE,64,5.0,10.0,97,0.00,,,0.07,0.000000,,2013-06-18 08:23:00,
2013-06-18 04:52:00,57.0,56.0,-100.00,ENE,62,5.0,10.0,95,0.00,,,0.07,0.000000,,2013-06-18 08:52:00,
2013-06-18 05:02:00,57.0,56.0,-100.00,ENE,62,5.0,10.0,95,0.00,,,0.07,0.000000,,2013-06-18 09:02:00,
2013-06-18 05:12:00,57.0,56.0,-100.00,ENE,62,5.0,10.0,95,0.00,,,0.07,0.000000,,2013-06-18 09:12:00,
2013-06-18 05:22:00,57.0,56.0,-100.00,ENE,62,5.0,10.0,95,0.00,,,0.07,0.000000,,2013-06-18 09:22:00,
2013-06-18 05:53:00,56.0,53.0,-100.00,ENE,61,5.0,8.0,89,0.00,,,0.07,0.000000,,2013-06-18 09:53:00,
2013-06-18 06:02:00,56.0,53.0,-100.00,ENE,61,5.0,8.0,89,0.00,,,0.07,0.000000,,2013-06-18 10:02:00,
2013-06-18 06:11:00,56.0,53.0,-100.00,ENE,61,5.0,8.0,89,0.00,,,0.07,0.000000,,2013-06-18 10:11:00,
2013-06-18 06:22:00,56.0,53.0,-100.00,ENE,61,5.0,8.0,89,0.00,,,0.07,0.000000,,2013-06-18 10:22:00,
2013-06-18 06:53:00,57.0,53.0,-100.00,NE,47,4.0,8.0,87,0.00,,,0.07,12.000000,,2013-06-18 10:53:00,
2013-06-18 07:02:00,57.0,53.0,-100.00,NE,47,4.0,8.0,87,0.00,,,0.07,12.000000,,2013-06-18 11:02:00,
2013-06-18 07:11:00,57.0,53.0,-100.00,NE,47,4.0,8.0,87,0.00,,,0.07,12.000000,,2013-06-18 11:11:00,
2013-06-18 07:22:00,57.0,53.0,-100.00,NE,47,4.0,8.0,87,0.00,,,0.07,12.000000,,2013-06-18 11:22:00,
2013-06-18 07:52:00,57.0,53.0,-100.00,NE,35,5.0,11.0,87,0.00,,,0.07,59.000000,,2013-06-18 11:52:00,
2013-06-18 08:01:00,57.0,53.0,-100.00,NE,35,5.0,11.0,87,0.00,,,0.07,59.000000,,2013-06-18 12:01:00,
2013-06-18 08:11:00,57.0,53.0,-100.00,NE,35,5.0,11.0,87,0.00,,,0.07,59.000000,,2013-06-18 12:11:00,
2013-06-18 08:22:00,57.0,53.0,-100.00,NE,35,5.0,11.0,87,0.00,,,0.07,59.000000,,2013-06-18 12:22:00,
2013-06-18 08:52:00,56.0,51.0,-100.00,NE,39,7.0,14.0,83,0.00,,,0.07,104.000000,,2013-06-18 12:52:00,
2013-06-18 09:02:00,56.0,51.0,-100.00,NE,39,7.0,14.0,83,0.00,,,0.07,104.000000,,2013-06-18 13:02:00,
2013-06-18 09:12:00,56.0,51.0,-100.00,NE,39,7.0,14.0,83,0.00,,,0.07,104.000000,,2013-06-18 13:12:00,
2013-06-18 09:22:00,56.0,51.0,-100.00,NE,39,7.0,14.0,83,0.00,,,0.07,104.000000,,2013-06-18 13:22:00,
2013-06-18 09:53:00,58.0,52.0,-100.00,ENE,59,8.0,13.0,80,0.00,,,0.07,186.000000,,2013-06-18 13:53:00,
2013-06-18 10:02:00,58.0,52.0,-100.00,ENE,59,8.0,13.0,80,0.00,,,0.07,186.000000,,2013-06-18 14:02:00,
2013-06-18 10:12:00,58.0,52.0,-100.00,ENE,59,8.0,13.0,80,0.00,,,0.07,186.000000,,2013-06-18 14:12:00,
2013-06-18 10:22:00,58.0,52.0,-100.00,ENE,59,8.0,13.0,80,0.00,,,0.07,186.000000,,2013-06-18 14:22:00,
2013-06-18 10:53:00,60.0,52.0,-100.00,ENE,71,6.0,14.0,74,0.00,,,0.07,340.000000,,2013-06-18 14:53:00,
2013-06-18 11:02:00,60.0,52.0,-100.00,ENE,71,6.0,14.0,74,0.00,,,0.07,340.000000,,2013-06-18 15:02:00,
2013-06-18 11:11:00,60.0,52.0,-100.00,ENE,71,6.0,14.0,74,0.00,,,0.07,340.000000,,2013-06-18 15:11:00,
2013-06-18 11:22:00,60.0,52.0,-100.00,ENE,71,6.0,14.0,74,0.00,,,0.07,340.000000,,2013-06-18 15:22:00,
2013-06-18 11:53:00,64.0,54.0,-100.00,ENE,67,6.0,11.0,69,0.00,,,0.07,546.000000,,2013-06-18 15:53:00,
2013-06-18 12:02:00,64.0,54.0,-100.00,ENE,67,6.0,11.0,69,0.00,,,0.07,546.000000,,2013-06-18 16:02:00,
2013-06-18 12:11:00,64.0,54.0,-100.00,ENE,67,6.0,11.0,69,0.00,,,0.07,546.000000,,2013-06-18 16:11:00,
2013-06-18 12:23:00,64.0,54.0,-100.00,ENE,67,6.0,11.0,69,0.00,,,0.07,546.000000,,2013-06-18 16:23:00,
2013-06-18 12:53:00,66.0,54.0,-100.00,North,7,6.0,14.0,66,0.00,,,0.07,624.000000,,2013-06-18 16:53:00,
2013-06-18 13:02:00,66.0,54.0,-100.00,North,7,6.0,14.0,66,0.00,,,0.07,624.000000,,2013-06-18 17:02:00,
2013-06-18 13:12:00,66.0,54.0,-100.00,North,7,6.0,14.0,66,0.00,,,0.07,624.000000,,2013-06-18 17:12:00,
2013-06-18 13:22:00,66.0,54.0,-100.00,North,7,6.0,14.0,66,0.00,,,0.07,624.000000,,2013-06-18 17:22:00,
2013-06-18 13:53:00,67.0,52.0,-100.00,NNE,23,7.0,13.0,59,0.00,,,0.07,838.000000,,2013-06-18 17:53:00,
2013-06-18 14:02:00,67.0,52.0,-100.00,NNE,23,7.0,13.0,59,0.00,,,0.07,838.000000,,2013-06-18 18:02:00,
2013-06-18 14:12:00,67.0,52.0,-100.00,NNE,23,7.0,13.0,59,0.00,,,0.07,838.000000,,2013-06-18 18:12:00,
2013-06-18 14:22:00,67.0,52.0,-100.00,NNE,23,7.0,13.0,59,0.00,,,0.07,838.000000,,2013-06-18 18:22:00,
2013-06-18 14:53:00,67.0,49.0,-100.00,ENE,64,9.0,17.0,52,0.00,,,0.07,828.000000,,2013-06-18 18:53:00,
2013-06-18 15:02:00,67.0,49.0,-100.00,ENE,64,9.0,17.0,52,0.00,,,0.07,828.000000,,2013-06-18 19:02:00,
2013-06-18 15:12:00,67.0,49.0,-100.00,ENE,64,9.0,17.0,52,0.00,,,0.07,828.000000,,2013-06-18 19:12:00,
2013-06-18 15:22:00,67.0,49.0,-100.00,ENE,64,9.0,17.0,52,0.00,,,0.07,828.000000,,2013-06-18 19:22:00,
2013-06-18 15:53:00,68.0,47.0,-100.00,NE,49,7.0,15.0,47,0.00,,,0.07,803.000000,,2013-06-18 19:53:00,
2013-06-18 16:02:00,68.0,47.0,-100.00,NE,49,7.0,15.0,47,0.00,,,0.07,803.000000,,2013-06-18 20:02:00,
2013-06-18 16:12:00,68.0,47.0,-100.00,NE,49,7.0,15.0,47,0.00,,,0.07,803.000000,,2013-06-18 20:12:00,
2013-06-18 16:23:00,68.0,47.0,-100.00,NE,49,7.0,15.0,47,0.00,,,0.07,803.000000,,2013-06-18 20:23:00,
2013-06-18 16:53:00,70.0,48.0,-100.00,NNE,27,6.0,14.0,45,0.00,,,0.07,714.000000,,2013-06-18 20:53:00,
2013-06-18 17:02:00,70.0,48.0,-100.00,NNE,27,6.0,14.0,45,0.00,,,0.07,714.000000,,2013-06-18 21:02:00,
2013-06-18 17:12:00,70.0,48.0,-100.00,NNE,27,6.0,14.0,45,0.00,,,0.07,714.000000,,2013-06-18 21:12:00,
2013-06-18 17:23:00,70.0,48.0,-100.00,NNE,27,6.0,14.0,45,0.00,,,0.07,714.000000,,2013-06-18 21:23:00,
2013-06-18 17:52:00,69.0,47.0,-100.00,ENE,64,8.0,15.0,45,0.00,,,-99.99,602.000000,,2013-06-18 21:52:00,
2013-06-18 18:02:00,69.0,47.0,-100.00,ENE,64,8.0,15.0,45,0.00,,,-99.99,602.000000,,2013-06-18 22:02:00,
2013-06-18 18:11:00,69.0,47.0,-100.00,ENE,64,8.0,15.0,45,0.00,,,-99.99,602.000000,,2013-06-18 22:11:00,
2013-06-18 18:22:00,69.0,47.0,-100.00,ENE,64,8.0,15.0,45,0.00,,,-99.99,602.000000,,2013-06-18 22:22:00,
2013-06-18 18:53:00,69.0,47.0,-100.00,NE,43,5.0,12.0,45,0.00,,,0.07,442.000000,,2013-06-18 22:53:00,
2013-06-18 19:02:00,69.0,47.0,-100.00,NE,43,5.0,12.0,45,0.00,,,0.07,442.000000,,2013-06-18 23:02:00,
2013-06-18 19:12:00,69.0,47.0,-100.00,NE,43,5.0,12.0,45,0.00,,,0.07,442.000000,,2013-06-18 23:12:00,
2013-06-18 19:23:00,69.0,47.0,-100.00,NE,43,5.0,12.0,45,0.00,,,0.07,442.000000,,2013-06-18 23:23:00,
2013-06-18 19:53:00,68.0,46.0,-100.00,NE,36,5.0,12.0,46,0.00,,,0.07,271.000000,,2013-06-18 23:53:00,
2013-06-18 20:02:00,68.0,46.0,-100.00,NE,36,5.0,12.0,46,0.00,,,0.07,271.000000,,2013-06-19 00:02:00,
2013-06-18 20:12:00,68.0,46.0,-100.00,NE,36,5.0,12.0,46,0.00,,,0.07,271.000000,,2013-06-19 00:12:00,
2013-06-18 20:22:00,68.0,46.0,-100.00,NE,36,5.0,12.0,46,0.00,,,0.07,271.000000,,2013-06-19 00:22:00,
2013-06-18 20:53:00,65.0,47.0,-100.00,ENE,57,3.0,8.0,52,0.00,,,0.07,104.000000,,2013-06-19 00:53:00,
2013-06-18 21:02:00,65.0,47.0,-100.00,ENE,57,3.0,8.0,52,0.00,,,0.07,104.000000,,2013-06-19 01:02:00,
2013-06-18 21:11:00,65.0,47.0,-100.00,ENE,57,3.0,8.0,52,0.00,,,0.07,104.000000,,2013-06-19 01:11:00,
2013-06-18 21:22:00,65.0,47.0,-100.00,ENE,57,3.0,8.0,52,0.00,,,0.07,104.000000,,2013-06-19 01:22:00,
2013-06-18 21:53:00,60.0,50.0,-100.00,ESE,108,1.0,4.0,70,0.00,,,0.07,7.000000,,2013-06-19 01:53:00,
2013-06-18 22:02:00,60.0,50.0,-100.00,ESE,108,1.0,4.0,70,0.00,,,0.07,7.000000,,2013-06-19 02:02:00,
2013-06-18 22:11:00,60.0,50.0,-100.00,ESE,108,1.0,4.0,70,0.00,,,0.07,7.000000,,2013-06-19 02:11:00,
2013-06-18 22:21:00,60.0,50.0,-100.00,ESE,108,1.0,4.0,70,0.00,,,0.07,7.000000,,2013-06-19 02:21:00,
2013-06-18 22:52:00,56.0,51.0,-100.00,SSE,164,1.0,4.0,82,0.00,,,0.07,0.000000,,2013-06-19 02:52:00,
2013-06-18 23:01:00,56.0,51.0,-100.00,SSE,164,1.0,4.0,82,0.00,,,0.07,0.000000,,2013-06-19 03:01:00,
2013-06-18 23:12:00,56.0,51.0,-100.00,SSE,164,1.0,4.0,82,0.00,,,0.07,0.000000,,2013-06-19 03:12:00,
2013-06-18 23:22:00,56.0,51.0,-100.00,SSE,164,1.0,4.0,82,0.00,,,0.07,0.000000,,2013-06-19 03:22:00,
2013-06-18 23:52:00,53.0,50.0,-100.00,South,183,1.0,5.0,91,0.00,,,0.07,0.000000,,2013-06-19 03:52:00,